Weather History for Dayton Wright, OH

Change the Weather History Date:

Sunday, November 17, 2013

  Actual Average (KFFO) Record (KFFO)
Temperature  
Mean Temperature 58 °F -  
Max Temperature 64 °F 49 °F 64 °F (2013)
Min Temperature 51 °F 32 °F 17 °F (1997)
Degree Days  
Heating Degree Days 7    
Growing Degree Days 8 (Base 50)    
Moisture  
Dew Point 55 °F    
Average Humidity 85    
Maximum Humidity 94    
Minimum Humidity 51    
Precipitation  
Precipitation 0.78 in - - ()
Sea Level Pressure  
Sea Level Pressure 29.74 in    
Wind  
Wind Speed 14 mph (SSW)    
Max Wind Speed 25 mph    
Max Gust Speed 40 mph    
Visibility 8 miles    
Events Rain , Thunderstorm    
Averages and records for this station are not official NWS values.
T = Trace of Precipitation, MM = Missing Value Source: NWS Daily Summary

Daily Weather History Graph

Daily Weather History Graph

Search for Another Location

Airport:

Trip Planner

Search our weather history database for the weather conditions in past years. The results will help you decide how hot, cold, wet, or windy it might be!

Date:

Astronomy

Nov. 17, 2013 Rise Set
Actual Time 7:23 AM EST 5:19 PM EST
Civil Twilight 6:54 AM EST 5:48 PM EST
Nautical Twilight 6:21 AM EST 6:21 PM EST
Astronomical Twilight 5:50 AM EST 6:53 PM EST
Moon 5:36 PM EST (11/17) 7:16 AM EST (11/17)
Length of Visible Light 10h 54m
Length of Day
9h 56m
Full, 100% of the Moon is Illuminated
Nov 17
Full
Nov 25
Last Quarter
Dec 2
New
Dec 9
First Quarter
Dec 17
Full

Hourly Weather History & Observations

Time (EST) Temp. Dew Point Humidity Pressure Visibility Wind Dir Wind Speed Gust Speed Precip Events Conditions
12:53 AM 60.1 °F 53.1 °F 78% 29.89 in 10.0 mi South 16.1 mph 24.2 mph N/A   Overcast
1:53 AM 59.0 °F 54.0 °F 83% 29.87 in 10.0 mi South 12.7 mph 26.5 mph 0.00 in   Overcast
2:53 AM 59.0 °F 54.0 °F 83% 29.84 in 10.0 mi South 13.8 mph 23.0 mph 0.01 in Rain Light Rain
3:53 AM 60.1 °F 54.0 °F 80% 29.82 in 10.0 mi South 13.8 mph 21.9 mph 0.00 in   Overcast
4:21 AM 59.0 °F 53.6 °F 82% 29.83 in 6.0 mi South 13.8 mph - 0.04 in Rain , Thunderstorm Rain
4:35 AM 57.2 °F 55.4 °F 94% 29.83 in 2.5 mi South 9.2 mph - 0.17 in Rain , Thunderstorm Heavy Thunderstorms and Rain
4:44 AM 57.2 °F 55.4 °F 94% 29.86 in 3.0 mi West 9.2 mph - 0.23 in Rain , Thunderstorm Heavy Thunderstorms and Rain
4:48 AM 57.2 °F 55.4 °F 94% 29.85 in 1.8 mi West 5.8 mph - 0.30 in Rain , Thunderstorm Heavy Rain
4:53 AM 57.9 °F 55.0 °F 90% 29.85 in 1.8 mi West 3.5 mph - 0.32 in Rain Rain
4:57 AM 57.2 °F 55.4 °F 94% 29.86 in 3.0 mi West 4.6 mph - 0.00 in Rain Light Rain
5:21 AM 57.2 °F 55.4 °F 94% 29.85 in 6.0 mi South 12.7 mph - 0.01 in Rain Light Rain
5:53 AM 57.9 °F 55.9 °F 93% 29.83 in 9.0 mi SSW 11.5 mph - 0.06 in Rain Light Rain
6:07 AM 57.2 °F 55.4 °F 94% 29.84 in 10.0 mi SSW 8.1 mph - 0.00 in   Overcast
6:43 AM 57.2 °F 55.4 °F 94% 29.83 in 9.0 mi South 10.4 mph - 0.01 in Rain Light Rain
6:50 AM 57.2 °F 55.4 °F 94% 29.82 in 9.0 mi SSE 8.1 mph - 0.01 in Rain Light Rain
6:53 AM 57.9 °F 55.9 °F 93% 29.82 in 9.0 mi SSE 10.4 mph - 0.01 in Rain Light Rain
7:09 AM 59.0 °F 55.4 °F 88% 29.80 in 8.0 mi South 20.7 mph 28.8 mph 0.02 in Rain Light Rain
7:21 AM 59.0 °F 57.2 °F 94% 29.81 in 10.0 mi South 16.1 mph 24.2 mph 0.02 in Rain Light Rain
7:29 AM 59.0 °F 57.2 °F 94% 29.81 in 10.0 mi South 18.4 mph 25.3 mph 0.02 in Rain Light Rain
7:53 AM 59.0 °F 57.0 °F 93% 29.80 in 7.0 mi South 24.2 mph 31.1 mph 0.07 in Rain Rain
8:53 AM 60.1 °F 57.0 °F 90% 29.78 in 10.0 mi South 24.2 mph 34.5 mph 0.05 in   Overcast
9:11 AM 60.8 °F 57.2 °F 88% 29.80 in 10.0 mi South 19.6 mph 31.1 mph 0.00 in Rain Light Rain
9:53 AM 60.1 °F 57.0 °F 90% 29.79 in 10.0 mi South 17.3 mph 24.2 mph 0.01 in   Overcast
10:53 AM 61.0 °F 57.0 °F 87% 29.76 in 10.0 mi South 17.3 mph 28.8 mph 0.00 in   Mostly Cloudy
11:05 AM 60.8 °F 57.2 °F 88% 29.77 in 10.0 mi South 18.4 mph 29.9 mph N/A   Mostly Cloudy
11:53 AM 61.0 °F 57.0 °F 87% 29.73 in 10.0 mi South 18.4 mph 26.5 mph N/A   Overcast
12:53 PM 62.1 °F 57.0 °F 84% 29.68 in 10.0 mi South 16.1 mph 25.3 mph N/A   Overcast
1:53 PM 62.1 °F 57.9 °F 86% 29.62 in 10.0 mi South 20.7 mph 29.9 mph N/A   Overcast
2:53 PM 63.0 °F 57.9 °F 84% 29.58 in 10.0 mi South 17.3 mph 32.2 mph N/A   Overcast
3:53 PM 62.1 °F 59.0 °F 90% 29.55 in 1.8 mi South 21.9 mph 27.6 mph 0.10 in Rain Heavy Rain
4:02 PM 62.6 °F 59.0 °F 88% 29.56 in 4.0 mi South 20.7 mph 35.7 mph 0.00 in Rain Light Rain
4:53 PM 63.0 °F 59.0 °F 87% 29.52 in 9.0 mi South 23.0 mph 33.4 mph 0.01 in   Overcast
5:49 PM 62.6 °F 60.8 °F 94% 29.50 in 7.0 mi South 16.1 mph 26.5 mph 0.05 in Rain Light Rain
5:53 PM 63.0 °F 60.1 °F 90% 29.50 in 10.0 mi SSW 15.0 mph 26.5 mph 0.05 in Rain Light Rain
6:28 PM 64.4 °F 60.8 °F 88% 29.54 in 2.5 mi SSW 23.0 mph 40.3 mph 0.09 in Rain Heavy Rain
6:41 PM 64.4 °F 55.4 °F 73% 29.55 in 10.0 mi WSW 24.2 mph 38.0 mph 0.09 in   Overcast
6:53 PM 63.0 °F 54.0 °F 72% 29.55 in 10.0 mi WSW 25.3 mph 35.7 mph 0.09 in Rain Light Rain
7:53 PM 59.0 °F 51.1 °F 75% 29.61 in 10.0 mi West 9.2 mph 19.6 mph 0.00 in   Partly Cloudy
8:53 PM 57.0 °F 42.1 °F 57% 29.67 in 10.0 mi West 17.3 mph 31.1 mph N/A   Clear
9:53 PM 55.0 °F 37.0 °F 51% 29.72 in 10.0 mi West 13.8 mph 29.9 mph N/A   Clear
10:53 PM 52.0 °F 37.0 °F 57% 29.75 in 10.0 mi West 11.5 mph 19.6 mph N/A   Clear
11:53 PM 51.1 °F 37.9 °F 61% 29.77 in 10.0 mi WSW 8.1 mph - N/A   Clear